TimePST,TemperatureF,Dew PointF,Humidity,Sea Level PressureIn,VisibilityMPH,Wind Direction,Wind SpeedMPH,Gust SpeedMPH,PrecipitationIn,Events,Conditions,WindDirDegrees,DateUTC
12:06 AM,44.6,42.8,93,29.74,2.5,Calm,Calm,-,N/A,,Mostly Cloudy,0,2012-11-17 08:06:00
12:30 AM,44.6,42.8,93,29.73,3.0,Calm,Calm,-,N/A,,Mostly Cloudy,0,2012-11-17 08:30:00
12:51 AM,44.6,42.8,93,29.72,2.5,Calm,Calm,-,N/A,,Mostly Cloudy,0,2012-11-17 08:51:00
12:53 AM,45.0,43.0,93,29.72,2.5,Calm,Calm,-,N/A,,Mostly Cloudy,0,2012-11-17 08:53:00
1:18 AM,46.4,42.8,87,29.70,3.0,NNE,3.5,-,N/A,,Overcast,30,2012-11-17 09:18:00
1:29 AM,46.4,44.6,93,29.70,2.5,Calm,Calm,-,N/A,,Overcast,0,2012-11-17 09:29:00
1:40 AM,46.4,44.6,93,29.70,3.0,NW,3.5,-,N/A,,Overcast,320,2012-11-17 09:40:00
1:53 AM,46.0,44.1,93,29.70,4.0,Calm,Calm,-,N/A,,Overcast,0,2012-11-17 09:53:00
2:26 AM,46.4,44.6,93,29.70,2.5,East,5.8,-,0.01,Rain,Light Rain,100,2012-11-17 10:26:00
2:49 AM,46.4,44.6,93,29.70,4.0,Calm,Calm,-,0.01,Rain,Light Rain,0,2012-11-17 10:49:00
2:53 AM,46.9,44.1,90,29.70,4.0,Calm,Calm,-,0.01,Rain,Light Rain,0,2012-11-17 10:53:00
3:53 AM,46.9,45.0,93,29.67,4.0,Calm,Calm,-,0.01,,Overcast,0,2012-11-17 11:53:00
4:53 AM,46.9,45.0,93,29.64,4.0,NE,4.6,-,0.01,Rain,Light Rain,50,2012-11-17 12:53:00
5:29 AM,48.2,46.4,93,29.63,7.0,East,5.8,-,0.00,,Overcast,90,2012-11-17 13:29:00
5:41 AM,48.2,46.4,93,29.62,7.0,ENE,4.6,-,0.00,,Overcast,70,2012-11-17 13:41:00
5:53 AM,48.0,46.0,93,29.62,6.0,ENE,3.5,-,0.00,Rain,Light Rain,60,2012-11-17 13:53:00
6:33 AM,48.2,44.6,87,29.61,2.5,ENE,3.5,-,0.01,Rain,Rain,70,2012-11-17 14:33:00
6:37 AM,48.2,46.4,93,29.61,3.0,Calm,Calm,-,0.01,Rain,Rain,0,2012-11-17 14:37:00
6:53 AM,48.0,46.0,93,29.61,7.0,East,5.8,-,0.01,,Overcast,80,2012-11-17 14:53:00
7:05 AM,48.2,46.4,93,29.60,6.0,East,4.6,-,0.00,Rain,Light Rain,80,2012-11-17 15:05:00
7:12 AM,48.2,46.4,93,29.60,5.0,ENE,4.6,-,0.01,Rain,Rain,70,2012-11-17 15:12:00
7:23 AM,48.2,46.4,93,29.60,4.0,ENE,4.6,-,0.01,Rain,Rain,70,2012-11-17 15:23:00
7:53 AM,48.0,46.9,96,29.60,2.0,Calm,Calm,-,0.01,Rain,Heavy Rain,0,2012-11-17 15:53:00
8:10 AM,48.2,46.4,93,29.59,2.0,ENE,4.6,-,0.01,Rain,Rain,60,2012-11-17 16:10:00
8:23 AM,50.0,48.2,94,29.59,1.8,SW,8.1,-,0.01,Rain,Rain,220,2012-11-17 16:23:00
8:26 AM,51.8,48.2,88,29.59,3.0,SSW,12.7,-,0.01,Rain,Light Rain,200,2012-11-17 16:26:00
8:48 AM,53.6,48.2,82,29.59,10.0,South,11.5,17.3,0.02,,Overcast,190,2012-11-17 16:48:00
8:53 AM,53.1,48.9,86,29.59,10.0,South,6.9,17.3,0.02,,Overcast,180,2012-11-17 16:53:00
9:05 AM,51.8,48.2,88,29.58,10.0,East,8.1,-,0.01,,Overcast,100,2012-11-17 17:05:00
9:53 AM,52.0,48.9,89,29.56,10.0,SSE,12.7,-,0.02,,Overcast,150,2012-11-17 17:53:00
10:23 AM,53.6,48.2,82,29.58,8.0,SW,13.8,24.2,0.01,Rain,Light Rain,220,2012-11-17 18:23:00
10:53 AM,50.0,46.0,86,29.61,9.0,WSW,10.4,-,0.02,Rain,Light Rain,250,2012-11-17 18:53:00
11:53 AM,48.9,43.0,80,29.62,10.0,West,13.8,-,0.02,Rain,Light Rain,260,2012-11-17 19:53:00
12:53 PM,46.9,41.0,80,29.64,10.0,WSW,8.1,-,0.02,Rain,Light Rain,240,2012-11-17 20:53:00
1:53 PM,46.0,41.0,83,29.67,9.0,SW,5.8,-,0.01,Rain,Light Rain,220,2012-11-17 21:53:00
2:53 PM,45.0,42.1,90,29.69,10.0,Calm,Calm,-,0.01,Rain,Light Rain,0,2012-11-17 22:53:00
3:02 PM,44.6,42.8,93,29.69,10.0,South,3.5,-,0.00,Rain,Light Rain,180,2012-11-17 23:02:00
3:10 PM,44.6,42.8,93,29.70,10.0,South,5.8,-,0.01,Rain,Light Rain,170,2012-11-17 23:10:00
3:53 PM,46.0,41.0,83,29.71,10.0,South,11.5,-,0.02,,Overcast,170,2012-11-17 23:53:00
4:53 PM,45.0,41.0,86,29.73,10.0,SSE,12.7,-,0.01,Rain,Light Rain,160,2012-11-18 00:53:00
5:53 PM,45.0,39.9,82,29.75,10.0,South,15.0,-,0.01,,Mostly Cloudy,170,2012-11-18 01:53:00
6:53 PM,44.1,39.0,82,29.74,10.0,South,11.5,-,0.01,,Partly Cloudy,180,2012-11-18 02:53:00
7:53 PM,45.0,39.9,82,29.74,10.0,South,18.4,25.3,0.01,,Mostly Cloudy,190,2012-11-18 03:53:00
8:53 PM,45.0,41.0,86,29.77,9.0,SSW,9.2,-,0.01,Rain,Rain,210,2012-11-18 04:53:00
9:37 PM,44.6,41.0,87,29.79,8.0,SSW,11.5,16.1,N/A,Rain,Light Rain,210,2012-11-18 05:37:00
9:53 PM,45.0,41.0,86,29.79,10.0,SSW,12.7,-,N/A,Rain,Light Rain,200,2012-11-18 05:53:00
10:15 PM,44.6,39.2,81,29.79,10.0,South,16.1,-,0.00,,Mostly Cloudy,180,2012-11-18 06:15:00
10:53 PM,45.0,41.0,86,29.81,6.0,South,23.0,27.6,0.01,Rain,Rain,190,2012-11-18 06:53:00
11:53 PM,45.0,39.9,82,29.82,10.0,South,11.5,-,N/A,,Mostly Cloudy,180,2012-11-18 07:53:00